Terminal Aerodrome Forecast
Issued by NWS

Home | Current Version | Previous Version | Text Only | Print | Product List | Glossary On
Versions: 1 2 3 4 5 6 7 8 9 10 11 12 13 14 15
000
FTUS44 KTSA 271600 AAB
TAFFYV
TAF AMD
KFYV 271610Z 2716/2812 02004KT P6SM SKC
      TEMPO 2716/2718 BKN014
     FM272200 16005KT P6SM SCT250
     FM280000 VRB03KT P6SM SCT250=

USA.gov is the U.S. government's official web portal to all federal, state and local government web resources and services.